{"data":{"norad_id":64615,"epoch":"2026-09-20T22:45:46.661472Z","epoch_age_seconds":92853,"freshness":"FRESH","line1":"1 64615U 25137X   26263.94845673  .00016259  00000+0  49104-3 0  9998","line2":"2 64615  53.1598 147.3036 0001601  96.5785 263.5400 15.34416637 70644","mean_motion":15.34416637,"eccentricity":0.0001601,"inclination_deg":53.1598,"raan_deg":147.3036,"arg_perigee_deg":96.5785,"mean_anomaly_deg":263.54,"bstar":0.00049104,"rev_number":7064,"period_min":93.846740531659,"perigee_km":461.55858137801,"apogee_km":463.7490025896,"semimajor_km":6840.7907919838,"source":"CELESTRAK","updated_at":"2026-09-21T09:00:35.395451Z"}}